Location: Mexico
(19.4000°N, 99.1500°W)
Time: 00:47:30
(UTC-06:00)

ISS - Pass Details

Date: 23 July 2017
Orbit: 400 x 408 km, 51.6° (Epoch: 21 July)

Event Time Altitude Azimuth Distance (km) Brightness Sun altitude
Rises 04:53:20 0° 344° (NNW) 2,307 0.2 -17.2°
Reaches altitude 10° 04:56:08 10° 11° (N) 1,449 -0.5 -16.6°
Maximum altitude 04:57:59 14° 46° (NE) 1,218 -0.3 -16.2°
Drops below altitude 10° 04:59:51 10° 81° (E) 1,450 0.1 -15.8°
Sets 05:02:38 0° 107° (ESE) 2,309 0.7 -15.2°
